DECAYED

TIANHUI 1-03 DEB, 41023 (Decayed)

Orbit data source: Space-Track

TIANHUI 1-03 DEB, 41023 was space debris in SSO originally from a launch on Mon, 26 Oct 2015 UTC launched from the Jiuquan Satellite Launch Center, China (JSC). Debris objects in space refer to the collection of defunct objects orbiting the Earth. Examples of debris include non-operational satellites, rocket bodies, and fragments generated from explosions, collisions, or faulty payload assembly.

Not visible in the next 10 days
TIANHUI 1-03 DEB details
Identifier
41023, 2015-061B
Orbit
Decayed
Last TLE update8 months ago
Origin
Flag of CNCASC (CN / PRC)
ManufacturerUnknown
MissionDecayed spacecraft
Bus & MotorUnknown
MassUnknown
Launch date (UTC)
2015-10-26 (9 years ago)
Launch vehicleUnknown
Launch site
Jiuquan Satellite Launch Center, China (JSC)
Object type
Payload
Rocket body
Debris
Shape & HBRUnknown
Radar Cross SectionSmall (<0.1 m²)

Expand to show TLE details & history

TLE from 8 months ago
0 TIANHUI 1-03 DEB
1 41023U 15061B   24126.01009347  .02924571  12948-1  48679-2 0  9993
2 41023  97.2759  36.2033 0019878 209.8794 150.1355 16.05845536461587
Epoch: 2024-05-05T00:14Z
Definitive object data (Epoch: 2024-05-05T00:14:32.075Z)
Latitude-0°
Longitude169.20115°
Altitude272.923 km
Speed7.737 km/s
True Right ascension02h 24m 48s
True Declination0° 00' 00"
Sunlit
Object was in daylight at TLE epoch
Visualization observer readout
Observer readout values are unavailable because the object's trajectory could not be propagated. This is usually caused when the trajectory data is faulty or the object's orbit has decayed.
Visualization observer readout
Observer readout values are unavailable because the object's trajectory could not be propagated. This is usually caused when the trajectory data is faulty or the object's orbit has decayed.
Orbital elements
Apogee altitude268.297 km
Perigee altitude241.926 km
Semi-major axis6,633.248 km
Eccentricity0.0019878
Inclination97.2759°
RAAN36.2033°
Arg. of periapsis209.8794°
True anomaly150.24868°
Mean anomaly150.1355°
Eccentric anomaly150.19212°
Mean motion4.01748 °/min
BSTAR0.0048679
Orbital period89.61 mins
Loading maneuver chart data...
Loading historical data...
Loading historical data...
Loading historical data...
Loading historical data...
Loading historical data...
Loading historical data...
Loading historical data...

TIANHUI 1-03 DEB Visibility forecast

Observer location: undefined°, undefined

This satellite is decayed
Span
Click to sort rows by Start time (UTC) header in descending order
Start Az.
Max El. time (UTC)
Max El. Az.
Max El.
End time (UTC)
End Az.
|